| time (UTC) | temp C | wind direction | speed KPH | gust KPH | rain 1hr cm | rain 24hr cm | rain mn cm | humidity % | barometer mb |
| 20260505211253 | 23 | 147 | 6.4 | 9.7 | 0.00 | 0.00 | 0.00 | 36 | 1008.6 |
| 20260505210749 | 23 | 285 | 8.0 | 11.3 | 0.00 | 0.00 | 0.00 | 36 | 1008.7 |
| 20260505210246 | 24 | 301 | 6.4 | 9.7 | 0.00 | 0.00 | 0.00 | 35 | 1008.6 |
| 20260505205743 | 25 | 353 | 6.4 | 9.7 | 0.00 | 0.00 | 0.00 | 36 | 1008.7 |
| 20260505205242 | 23 | 7 | 6.4 | 9.7 | 0.00 | 0.00 | 0.00 | 37 | 1008.8 |
| 20260505204738 | 24 | 231 | 6.4 | 6.4 | 0.00 | 0.00 | 0.00 | 35 | 1009.1 |
| 20260505204236 | 23 | 301 | 4.8 | 4.8 | 0.00 | 0.00 | 0.00 | 38 | 1008.7 |
| 20260505203732 | 23 | 336 | 4.8 | 4.8 | 0.00 | 0.00 | 0.00 | 37 | 1008.6 |
| 20260505203230 | 23 | 48 | 6.4 | 9.7 | 0.00 | 0.00 | 0.00 | 37 | 1008.8 |
| 20260505202725 | 22 | 43 | 3.2 | 3.2 | 0.00 | 0.00 | 0.00 | 40 | 1009.0 |
| 20260505202221 | 22 | 16 | 4.8 | 6.4 | 0.00 | 0.00 | 0.00 | 41 | 1008.7 |
| 20260505201718 | 22 | 29 | 3.2 | 6.4 | 0.00 | 0.00 | 0.00 | 39 | 1009.1 |
| 20260505201216 | 22 | 126 | 3.2 | 3.2 | 0.00 | 0.00 | 0.00 | 39 | 1009.0 |
| 20260505200714 | 23 | 329 | 8.0 | 9.7 | 0.00 | 0.00 | 0.00 | 40 | 1008.8 |
| 20260505200211 | 23 | 76 | 1.6 | 1.6 | 0.00 | 0.00 | 0.00 | 38 | 1008.7 |
| 20260505195706 | 23 | 174 | 4.8 | 4.8 | 0.00 | 0.00 | 0.00 | 38 | 1008.6 |
| 20260505195204 | 23 | 89 | 1.6 | 3.2 | 0.00 | 0.00 | 0.00 | 38 | 1009.0 |
| 20260505194701 | 23 | 337 | 11.3 | 14.5 | 0.00 | 0.00 | 0.00 | 38 | 1009.2 |
| 20260505194157 | 23 | 154 | 4.8 | 6.4 | 0.00 | 0.00 | 0.00 | 38 | 1009.0 |
| 20260505193653 | 23 | 250 | 3.2 | 4.8 | 0.00 | 0.00 | 0.00 | 37 | 1009.1 |
| 20260505193151 | 23 | 97 | 1.6 | 1.6 | 0.00 | 0.00 | 0.00 | 36 | 1009.1 |
| 20260505192649 | 23 | 82 | 3.2 | 3.2 | 0.00 | 0.00 | 0.00 | 36 | 1009.1 |
| 20260505192146 | 24 | 123 | 1.6 | 1.6 | 0.00 | 0.00 | 0.00 | 35 | 1009.2 |
| 20260505191645 | 24 | 271 | 3.2 | 3.2 | 0.00 | 0.00 | 0.00 | 34 | 1009.2 |
| 20260505191143 | 23 | 110 | 1.6 | 1.6 | 0.00 | 0.00 | 0.00 | 33 | 1009.1 |
| 20260505190638 | 23 | 68 | 4.8 | 9.7 | 0.00 | 0.00 | 0.00 | 33 | 1009.3 |
| 20260505190133 | 22 | 91 | 1.6 | 1.6 | 0.00 | 0.00 | 0.00 | 33 | 1009.3 |
| 20260505185630 | 23 | 158 | 3.2 | 4.8 | 0.00 | 0.00 | 0.00 | 33 | 1009.1 |
| 20260505185126 | 23 | 143 | 0.0 | 0.0 | 0.00 | 0.00 | 0.00 | 32 | 1008.8 |
| 20260505184623 | 22 | 177 | 1.6 | 1.6 | 0.00 | 0.00 | 0.00 | 33 | 1009.0 |
| 20260505184120 | 23 | 152 | 1.6 | 1.6 | 0.00 | 0.00 | 0.00 | 30 | 1009.3 |
| 20260505183616 | 23 | 106 | 3.2 | 3.2 | 0.00 | 0.00 | 0.00 | 29 | 1009.1 |
| 20260505183114 | 23 | 123 | 3.2 | 6.4 | 0.00 | 0.00 | 0.00 | 27 | 1009.1 |
| 20260505182610 | 23 | 147 | 8.0 | 11.3 | 0.00 | 0.00 | 0.00 | 29 | 1009.2 |
| 20260505182107 | 23 | 114 | 1.6 | 1.6 | 0.00 | 0.00 | 0.00 | 30 | 1009.2 |
| 20260505181604 | 23 | 98 | 1.6 | 3.2 | 0.00 | 0.00 | 0.00 | 29 | 1009.4 |
| 20260505181101 | 23 | 103 | 3.2 | 4.8 | 0.00 | 0.00 | 0.00 | 31 | 1009.3 |
| 20260505180556 | 24 | 134 | 0.0 | 0.0 | 0.00 | 0.00 | 0.00 | 32 | 1009.2 |
| 20260505180055 | 23 | 130 | 1.6 | 1.6 | 0.00 | 0.00 | 0.00 | 31 | 1009.1 |
| 20260505175550 | 23 | 124 | 0.0 | 1.6 | 0.00 | 0.00 | 0.00 | 32 | 1009.0 |
| 20260505175046 | 23 | 185 | 0.0 | 0.0 | 0.00 | 0.00 | 0.00 | 34 | 1009.1 |
| 20260505174544 | 23 | 134 | 0.0 | 0.0 | 0.00 | 0.00 | 0.00 | 35 | 1009.2 |
| 20260505174039 | 22 | 106 | 1.6 | 1.6 | 0.00 | 0.00 | 0.00 | 38 | 1009.2 |
| 20260505173536 | 21 | 75 | 1.6 | 3.2 | 0.00 | 0.00 | 0.00 | 42 | 1009.2 |
| 20260505173033 | 22 | 137 | 0.0 | 0.0 | 0.00 | 0.00 | 0.00 | 41 | 1009.1 |
| 20260505172531 | 22 | 128 | 0.0 | 0.0 | 0.00 | 0.00 | 0.00 | 42 | 1009.2 |
| 20260505172027 | 21 | 109 | 1.6 | 1.6 | 0.00 | 0.00 | 0.00 | 45 | 1009.3 |
| 20260505171522 | 21 | 150 | 0.0 | 1.6 | 0.00 | 0.00 | 0.00 | 48 | 1009.1 |
| 20260505171020 | 20 | 78 | 3.2 | 4.8 | 0.00 | 0.00 | 0.00 | 47 | 1009.3 |
| 20260505170516 | 20 | 118 | 0.0 | 0.0 | 0.00 | 0.00 | 0.00 | 48 | 1009.5 |
| 20260505170012 | 20 | 141 | 0.0 | 1.6 | 0.00 | 0.00 | 0.00 | 49 | 1009.2 |
| 20260505165508 | 18 | 220 | 1.6 | 3.2 | 0.00 | 0.00 | 0.00 | 53 | 1009.4 |
| 20260505165004 | 19 | 167 | 1.6 | 3.2 | 0.00 | 0.00 | 0.00 | 52 | 1009.2 |
| 20260505164500 | 19 | 137 | 1.6 | 1.6 | 0.00 | 0.00 | 0.00 | 51 | 1009.3 |
| 20260505163958 | 19 | 79 | 3.2 | 3.2 | 0.00 | 0.00 | 0.00 | 51 | 1009.4 |
| 20260505163456 | 18 | 118 | 0.0 | 0.0 | 0.00 | 0.00 | 0.00 | 54 | 1009.3 |
| 20260505162956 | 17 | 150 | 1.6 | 1.6 | 0.00 | 0.00 | 0.00 | 57 | 1009.3 |
| 20260505162451 | 17 | 153 | 1.6 | 1.6 | 0.00 | 0.00 | 0.00 | 58 | 1009.5 |
| 20260505161947 | 16 | 100 | 0.0 | 1.6 | 0.00 | 0.00 | 0.00 | 58 | 1009.4 |
| 20260505161439 | 17 | 142 | 0.0 | 1.6 | 0.00 | 0.00 | 0.00 | 59 | 1009.5 |
| 20260505160936 | 17 | 262 | 0.0 | 3.2 | 0.00 | 0.00 | 0.00 | 58 | 1009.5 |
| 20260505160435 | 15 | 118 | 0.0 | 0.0 | 0.00 | 0.00 | 0.00 | 63 | 1009.5 |
| 20260505152910 | 14 | 98 | 1.6 | 1.6 | 0.00 | 0.00 | 0.00 | 67 | 1009.7 |
| 20260505152402 | 13 | 132 | 0.0 | 0.0 | 0.00 | 0.00 | 0.00 | 69 | 1009.7 |
| 20260505151901 | 12 | 136 | 0.0 | 0.0 | 0.00 | 0.00 | 0.00 | 72 | 1009.8 |
| 20260505151358 | 12 | 137 | 0.0 | 0.0 | 0.00 | 0.00 | 0.00 | 76 | 1009.6 |
| 20260505150855 | 11 | 127 | 1.6 | 1.6 | 0.00 | 0.00 | 0.00 | 77 | 1009.4 |
| 20260505150352 | 11 | 133 | 1.6 | 1.6 | 0.00 | 0.00 | 0.00 | 80 | 1009.6 |
| 20260505140311 | 8 | 114 | 0.0 | 0.0 | 0.00 | 0.00 | 0.00 | 86 | 1009.1 |
| 20260505130234 | 5 | 119 | 0.0 | 0.0 | 0.00 | 0.00 | 0.00 | 95 | 1008.5 |
| 20260505124725 | 4 | 143 | 0.0 | 0.0 | 0.00 | 0.00 | 0.00 | 95 | 1008.2 |
| 20260505124222 | 4 | 143 | 0.0 | 0.0 | 0.00 | 0.00 | 0.00 | 95 | 1008.4 |
| 20260505123717 | 4 | 143 | 0.0 | 0.0 | 0.00 | 0.00 | 0.00 | 95 | 1008.5 |
| 20260505123214 | 4 | 143 | 0.0 | 0.0 | 0.00 | 0.00 | 0.00 | 95 | 1008.3 |
| 20260505122711 | 4 | 143 | 0.0 | 0.0 | 0.00 | 0.00 | 0.00 | 95 | 1008.4 |
| 20260505122208 | 4 | 143 | 0.0 | 0.0 | 0.00 | 0.00 | 0.00 | 95 | 1008.3 |
| 20260505121705 | 4 | 143 | 0.0 | 0.0 | 0.00 | 0.00 | 0.00 | 95 | 1008.1 |
| 20260505121201 | 5 | 111 | 0.0 | 0.0 | 0.00 | 0.00 | 0.00 | 95 | 1008.2 |
| 20260505120657 | 5 | 111 | 0.0 | 0.0 | 0.00 | 0.00 | 0.00 | 95 | 1008.3 |
| 20260505120153 | 5 | 113 | 0.0 | 0.0 | 0.00 | 0.00 | 0.00 | 95 | 1008.2 |
| 20260505115647 | 5 | 113 | 0.0 | 0.0 | 0.00 | 0.00 | 0.00 | 95 | 1007.9 |
| 20260505115145 | 5 | 113 | 0.0 | 0.0 | 0.00 | 0.00 | 0.00 | 95 | 1008.1 |
| 20260505114642 | 5 | 113 | 0.0 | 0.0 | 0.00 | 0.00 | 0.00 | 95 | 1008.2 |
| 20260505114138 | 5 | 113 | 0.0 | 0.0 | 0.00 | 0.00 | 0.00 | 95 | 1008.2 |
| 20260505113635 | 5 | 113 | 0.0 | 0.0 | 0.00 | 0.00 | 0.00 | 95 | 1008.3 |
| 20260505113131 | 5 | 113 | 0.0 | 0.0 | 0.00 | 0.00 | 0.00 | 95 | 1008.1 |
| 20260505112628 | 5 | 113 | 0.0 | 0.0 | 0.00 | 0.00 | 0.00 | 94 | 1008.3 |
| 20260505112126 | 5 | 113 | 0.0 | 0.0 | 0.00 | 0.00 | 0.00 | 94 | 1008.1 |
| 20260505111625 | 5 | 113 | 0.0 | 0.0 | 0.00 | 0.00 | 0.00 | 94 | 1008.0 |
| 20260505111122 | 5 | 111 | 0.0 | 0.0 | 0.00 | 0.00 | 0.00 | 94 | 1008.0 |
| 20260505110618 | 5 | 111 | 0.0 | 0.0 | 0.00 | 0.00 | 0.00 | 94 | 1008.0 |
| 20260505110115 | 5 | 111 | 0.0 | 0.0 | 0.00 | 0.00 | 0.00 | 94 | 1007.9 |
| 20260505102051 | 6 | 110 | 0.0 | 0.0 | 0.00 | 0.00 | 0.00 | 92 | 1007.4 |
| 20260505101549 | 6 | 110 | 0.0 | 0.0 | 0.00 | 0.00 | 0.00 | 91 | 1007.4 |
| 20260505101045 | 6 | 108 | 0.0 | 1.6 | 0.00 | 0.00 | 0.00 | 91 | 1007.3 |
| 20260505100542 | 6 | 106 | 0.0 | 0.0 | 0.00 | 0.00 | 0.00 | 91 | 1007.5 |
| 20260505100039 | 6 | 134 | 0.0 | 0.0 | 0.00 | 0.00 | 0.00 | 91 | 1007.5 |
| 20260505095535 | 6 | 145 | 0.0 | 0.0 | 0.00 | 0.00 | 0.00 | 90 | 1007.7 |
| 20260505095031 | 6 | 156 | 0.0 | 0.0 | 0.00 | 0.00 | 0.00 | 90 | 1007.7 |
| 20260505094528 | 6 | 118 | 0.0 | 0.0 | 0.00 | 0.00 | 0.00 | 91 | 1007.4 |
| 20260505094024 | 6 | 114 | 0.0 | 0.0 | 0.00 | 0.00 | 0.00 | 91 | 1007.2 |
| 20260505093521 | 6 | 113 | 0.0 | 0.0 | 0.00 | 0.00 | 0.00 | 91 | 1007.4 |
| 20260505093018 | 6 | 138 | 0.0 | 0.0 | 0.00 | 0.00 | 0.00 | 90 | 1007.3 |
| 20260505092516 | 6 | 141 | 0.0 | 0.0 | 0.00 | 0.00 | 0.00 | 90 | 1007.4 |
| 20260505092014 | 7 | 151 | 0.0 | 0.0 | 0.00 | 0.00 | 0.00 | 89 | 1007.3 |
| 20260505091511 | 7 | 159 | 0.0 | 0.0 | 0.00 | 0.00 | 0.00 | 89 | 1007.2 |
| 20260505091009 | 7 | 154 | 0.0 | 0.0 | 0.00 | 0.00 | 0.00 | 90 | 1007.3 |
| 20260505090506 | 7 | 120 | 0.0 | 0.0 | 0.00 | 0.00 | 0.00 | 90 | 1007.4 |
| 20260505090004 | 7 | 115 | 0.0 | 0.0 | 0.00 | 0.00 | 0.00 | 90 | 1007.3 |
| 20260505085502 | 7 | 115 | 0.0 | 0.0 | 0.00 | 0.00 | 0.00 | 90 | 1007.3 |
| 20260505085000 | 7 | 113 | 0.0 | 0.0 | 0.00 | 0.00 | 0.00 | 90 | 1007.2 |
| 20260505084458 | 7 | 116 | 0.0 | 0.0 | 0.00 | 0.00 | 0.00 | 90 | 1007.2 |
| 20260505083955 | 7 | 149 | 0.0 | 0.0 | 0.00 | 0.00 | 0.00 | 90 | 1007.2 |
| 20260505083452 | 7 | 151 | 0.0 | 0.0 | 0.00 | 0.00 | 0.00 | 90 | 1007.4 |
| 20260505082948 | 7 | 130 | 0.0 | 0.0 | 0.00 | 0.00 | 0.00 | 90 | 1007.4 |
| 20260505082444 | 7 | 130 | 0.0 | 0.0 | 0.00 | 0.00 | 0.00 | 90 | 1007.4 |
| 20260505081942 | 7 | 130 | 0.0 | 0.0 | 0.00 | 0.00 | 0.00 | 90 | 1007.3 |
| 20260505081438 | 7 | 130 | 0.0 | 0.0 | 0.00 | 0.00 | 0.00 | 90 | 1007.3 |
| 20260505080934 | 7 | 130 | 0.0 | 0.0 | 0.00 | 0.00 | 0.00 | 89 | 1007.3 |
| 20260505080431 | 7 | 130 | 0.0 | 0.0 | 0.00 | 0.00 | 0.00 | 89 | 1007.1 |
| 20260505075926 | 8 | 131 | 0.0 | 0.0 | 0.00 | 0.00 | 0.00 | 89 | 1007.2 |
| 20260505075423 | 8 | 131 | 0.0 | 0.0 | 0.00 | 0.00 | 0.00 | 89 | 1007.0 |
| 20260505074921 | 8 | 131 | 0.0 | 0.0 | 0.00 | 0.00 | 0.00 | 89 | 1007.2 |
| 20260505074418 | 8 | 130 | 0.0 | 0.0 | 0.00 | 0.00 | 0.00 | 89 | 1007.1 |
| 20260505073915 | 8 | 131 | 0.0 | 0.0 | 0.00 | 0.00 | 0.00 | 89 | 1007.3 |
| 20260505073413 | 8 | 131 | 0.0 | 0.0 | 0.00 | 0.00 | 0.00 | 88 | 1007.2 |
| 20260505072910 | 8 | 131 | 0.0 | 0.0 | 0.00 | 0.00 | 0.00 | 88 | 1007.2 |
| 20260505072406 | 8 | 131 | 0.0 | 0.0 | 0.00 | 0.00 | 0.00 | 87 | 1007.0 |
| 20260505071902 | 8 | 130 | 0.0 | 0.0 | 0.00 | 0.00 | 0.00 | 86 | 1007.1 |
| 20260505071358 | 8 | 130 | 0.0 | 0.0 | 0.00 | 0.00 | 0.00 | 85 | 1006.9 |
| 20260505070857 | 8 | 129 | 0.0 | 0.0 | 0.00 | 0.00 | 0.00 | 84 | 1007.0 |
| 20260505070353 | 9 | 120 | 0.0 | 0.0 | 0.00 | 0.00 | 0.00 | 84 | 1007.1 |
| 20260505065848 | 9 | 108 | 0.0 | 0.0 | 0.00 | 0.00 | 0.00 | 83 | 1006.9 |
| 20260505065345 | 9 | 114 | 0.0 | 0.0 | 0.00 | 0.00 | 0.00 | 83 | 1007.0 |
| 20260505064842 | 9 | 118 | 0.0 | 0.0 | 0.00 | 0.00 | 0.00 | 83 | 1006.9 |
| 20260505064339 | 10 | 147 | 0.0 | 0.0 | 0.00 | 0.00 | 0.00 | 82 | 1006.8 |
| 20260505063837 | 10 | 133 | 0.0 | 0.0 | 0.00 | 0.00 | 0.00 | 82 | 1006.7 |
| 20260505063333 | 10 | 118 | 0.0 | 0.0 | 0.00 | 0.00 | 0.00 | 81 | 1006.6 |
| 20260505062830 | 10 | 111 | 0.0 | 0.0 | 0.00 | 0.00 | 0.00 | 80 | 1006.7 |
| 20260505062327 | 10 | 93 | 0.0 | 0.0 | 0.00 | 0.00 | 0.00 | 79 | 1006.8 |
| 20260505061824 | 11 | 132 | 0.0 | 0.0 | 0.00 | 0.00 | 0.00 | 78 | 1006.6 |
| 20260505061322 | 11 | 150 | 0.0 | 1.6 | 0.00 | 0.00 | 0.00 | 78 | 1006.8 |
| 20260505060819 | 10 | 170 | 1.6 | 1.6 | 0.00 | 0.00 | 0.00 | 78 | 1006.8 |
| 20260505060316 | 11 | 143 | 1.6 | 1.6 | 0.00 | 0.00 | 0.00 | 78 | 1006.6 |
| 20260505055812 | 11 | 112 | 3.2 | 4.8 | 0.00 | 0.00 | 0.00 | 77 | 1006.5 |
| 20260505055308 | 11 | 157 | 0.0 | 1.6 | 0.00 | 0.00 | 0.00 | 75 | 1006.4 |
| 20260505054806 | 11 | 160 | 0.0 | 0.0 | 0.00 | 0.00 | 0.00 | 74 | 1006.6 |
| 20260505054303 | 11 | 166 | 1.6 | 1.6 | 0.00 | 0.00 | 0.00 | 73 | 1006.6 |
| 20260505053801 | 11 | 157 | 0.0 | 0.0 | 0.00 | 0.00 | 0.00 | 74 | 1006.8 |
| 20260505053258 | 11 | 155 | 0.0 | 0.0 | 0.00 | 0.00 | 0.00 | 75 | 1006.7 |
| 20260505052754 | 11 | 156 | 0.0 | 0.0 | 0.00 | 0.00 | 0.00 | 74 | 1006.6 |
| 20260505052252 | 12 | 161 | 0.0 | 0.0 | 0.00 | 0.00 | 0.00 | 74 | 1006.5 |
| 20260505051748 | 12 | 115 | 0.0 | 0.0 | 0.00 | 0.00 | 0.00 | 73 | 1006.5 |
| 20260505051246 | 12 | 114 | 0.0 | 0.0 | 0.00 | 0.00 | 0.00 | 72 | 1006.5 |
| 20260505050744 | 12 | 113 | 0.0 | 0.0 | 0.00 | 0.00 | 0.00 | 72 | 1006.5 |
| 20260505050242 | 12 | 121 | 0.0 | 0.0 | 0.00 | 0.00 | 0.00 | 71 | 1006.6 |
| 20260505041706 | 15 | 98 | 1.6 | 1.6 | 0.00 | 0.00 | 0.00 | 60 | 1006.1 |
| 20260505041204 | 15 | 59 | 0.0 | 0.0 | 0.00 | 0.00 | 0.00 | 61 | 1006.2 |
| 20260505040701 | 15 | 115 | 0.0 | 0.0 | 0.00 | 0.00 | 0.00 | 58 | 1006.4 |
| 20260505040158 | 16 | 136 | 0.0 | 0.0 | 0.00 | 0.00 | 0.00 | 56 | 1006.2 |
| 20260505035654 | 16 | 203 | 1.6 | 1.6 | 0.00 | 0.00 | 0.00 | 55 | 1006.2 |
| 20260505035150 | 16 | 194 | 3.2 | 3.2 | 0.00 | 0.00 | 0.00 | 54 | 1006.1 |
| 20260505034647 | 17 | 168 | 0.0 | 0.0 | 0.00 | 0.00 | 0.00 | 53 | 1006.0 |
| 20260505034144 | 17 | 116 | 0.0 | 0.0 | 0.00 | 0.00 | 0.00 | 50 | 1005.9 |
| 20260505033640 | 17 | 146 | 0.0 | 0.0 | 0.00 | 0.00 | 0.00 | 50 | 1005.9 |
| 20260505033139 | 18 | 114 | 0.0 | 0.0 | 0.00 | 0.00 | 0.00 | 47 | 1005.8 |
| 20260505032637 | 18 | 99 | 0.0 | 1.6 | 0.00 | 0.00 | 0.00 | 47 | 1005.8 |
| 20260505032133 | 18 | 67 | 1.6 | 3.2 | 0.00 | 0.00 | 0.00 | 46 | 1005.7 |
| 20260505031630 | 18 | 93 | 0.0 | 0.0 | 0.00 | 0.00 | 0.00 | 47 | 1005.7 |
| 20260505031126 | 18 | 115 | 0.0 | 0.0 | 0.00 | 0.00 | 0.00 | 47 | 1005.4 |
| 20260505030623 | 18 | 133 | 0.0 | 0.0 | 0.00 | 0.00 | 0.00 | 48 | 1005.5 |
| 20260505030119 | 18 | 103 | 1.6 | 1.6 | 0.00 | 0.00 | 0.00 | 47 | 1005.3 |
| 20260505025615 | 18 | 151 | 0.0 | 0.0 | 0.00 | 0.00 | 0.00 | 46 | 1005.3 |
| 20260505025114 | 19 | 149 | 0.0 | 0.0 | 0.00 | 0.00 | 0.00 | 45 | 1005.2 |
| 20260505024611 | 20 | 330 | 1.6 | 3.2 | 0.00 | 0.00 | 0.00 | 43 | 1005.3 |
| 20260505024108 | 20 | 37 | 1.6 | 3.2 | 0.00 | 0.00 | 0.00 | 41 | 1005.3 |
| 20260505023605 | 20 | 132 | 1.6 | 3.2 | 0.00 | 0.00 | 0.00 | 41 | 1004.9 |
| 20260505023103 | 20 | 152 | 3.2 | 3.2 | 0.00 | 0.00 | 0.00 | 41 | 1005.2 |
| 20260505022600 | 21 | 66 | 1.6 | 1.6 | 0.00 | 0.00 | 0.00 | 40 | 1004.9 |
| 20260505022057 | 21 | 5 | 4.8 | 6.4 | 0.00 | 0.00 | 0.00 | 39 | 1005.3 |
| 20260505021554 | 21 | 317 | 4.8 | 4.8 | 0.00 | 0.00 | 0.00 | 38 | 1005.2 |
| 20260505021050 | 21 | 278 | 1.6 | 1.6 | 0.00 | 0.00 | 0.00 | 38 | 1005.2 |
| 20260505020550 | 22 | 175 | 1.6 | 1.6 | 0.00 | 0.00 | 0.00 | 38 | 1004.9 |
| 20260505020048 | 22 | 297 | 6.4 | 6.4 | 0.00 | 0.00 | 0.00 | 36 | 1005.1 |
| 20260505015544 | 22 | 212 | 3.2 | 4.8 | 0.00 | 0.00 | 0.00 | 35 | 1005.3 |
| 20260505015041 | 23 | 300 | 4.8 | 4.8 | 0.00 | 0.00 | 0.00 | 34 | 1005.1 |
| 20260505014538 | 23 | 305 | 4.8 | 4.8 | 0.00 | 0.00 | 0.00 | 33 | 1005.1 |
| 20260505014035 | 23 | 289 | 6.4 | 9.7 | 0.00 | 0.00 | 0.00 | 31 | 1004.8 |
| 20260505013532 | 23 | 280 | 4.8 | 6.4 | 0.00 | 0.00 | 0.00 | 32 | 1005.3 |
| 20260505013030 | 23 | 329 | 4.8 | 4.8 | 0.00 | 0.00 | 0.00 | 31 | 1005.1 |
| 20260505012528 | 23 | 318 | 4.8 | 6.4 | 0.00 | 0.00 | 0.00 | 31 | 1005.2 |
| 20260505012024 | 24 | 207 | 3.2 | 4.8 | 0.00 | 0.00 | 0.00 | 31 | 1005.1 |
| 20260505011520 | 24 | 158 | 1.6 | 3.2 | 0.00 | 0.00 | 0.00 | 31 | 1005.3 |
| 20260505011017 | 24 | 347 | 9.7 | 12.9 | 0.00 | 0.00 | 0.00 | 28 | 1005.1 |
| 20260505010512 | 24 | 132 | 6.4 | 9.7 | 0.00 | 0.00 | 0.00 | 29 | 1005.2 |
| 20260505010009 | 25 | 292 | 8.0 | 11.3 | 0.00 | 0.00 | 0.00 | 28 | 1005.1 |
| 20260505005506 | 25 | 213 | 9.7 | 12.9 | 0.00 | 0.00 | 0.00 | 29 | 1004.9 |
| 20260505005004 | 25 | 324 | 6.4 | 6.4 | 0.00 | 0.00 | 0.00 | 28 | 1005.2 |
| 20260505004501 | 25 | 234 | 4.8 | 6.4 | 0.00 | 0.00 | 0.00 | 26 | 1005.2 |
| 20260505003957 | 25 | 289 | 11.3 | 12.9 | 0.00 | 0.00 | 0.00 | 26 | 1005.2 |
| 20260505003454 | 25 | 284 | 9.7 | 16.1 | 0.00 | 0.00 | 0.00 | 25 | 1005.1 |
| 20260505002950 | 25 | 214 | 6.4 | 9.7 | 0.00 | 0.00 | 0.00 | 27 | 1004.9 |
| 20260505002446 | 25 | 313 | 11.3 | 14.5 | 0.00 | 0.00 | 0.00 | 26 | 1005.1 |
| 20260505001945 | 25 | 293 | 6.4 | 11.3 | 0.00 | 0.00 | 0.00 | 27 | 1005.2 |
| 20260505001442 | 25 | 291 | 6.4 | 9.7 | 0.00 | 0.00 | 0.00 | 25 | 1004.9 |
| 20260505000939 | 25 | 279 | 8.0 | 9.7 | 0.00 | 0.00 | 0.00 | 27 | 1005.1 |
| 20260505000437 | 25 | 331 | 8.0 | 9.7 | 0.00 | 0.00 | 0.00 | 27 | 1005.1 |
| 20260504235934 | 25 | 328 | 9.7 | 12.9 | 0.00 | 0.00 | 0.00 | 27 | 1004.9 |
| 20260504235431 | 25 | 275 | 3.2 | 4.8 | 0.00 | 0.00 | 0.00 | 27 | 1004.8 |
| 20260504234927 | 25 | 303 | 9.7 | 11.3 | 0.00 | 0.00 | 0.00 | 26 | 1004.9 |
| 20260504234425 | 25 | 294 | 8.0 | 14.5 | 0.00 | 0.00 | 0.00 | 25 | 1004.9 |
| 20260504233921 | 25 | 353 | 8.0 | 9.7 | 0.00 | 0.00 | 0.00 | 26 | 1004.9 |
| 20260504233417 | 25 | 245 | 8.0 | 11.3 | 0.00 | 0.00 | 0.00 | 26 | 1005.2 |
| 20260504232914 | 25 | 7 | 6.4 | 9.7 | 0.00 | 0.00 | 0.00 | 27 | 1004.9 |
| 20260504232411 | 25 | 323 | 9.7 | 14.5 | 0.00 | 0.00 | 0.00 | 24 | 1005.1 |
| 20260504231908 | 25 | 267 | 9.7 | 12.9 | 0.00 | 0.00 | 0.00 | 25 | 1005.1 |
| 20260504231404 | 25 | 165 | 6.4 | 6.4 | 0.00 | 0.00 | 0.00 | 26 | 1005.1 |
| 20260504230901 | 25 | 339 | 6.4 | 9.7 | 0.00 | 0.00 | 0.00 | 25 | 1005.5 |
| 20260504230358 | 25 | 231 | 9.7 | 11.3 | 0.00 | 0.00 | 0.00 | 26 | 1005.2 |
| 20260504225857 | 25 | 129 | 6.4 | 6.4 | 0.00 | 0.00 | 0.00 | 27 | 1005.2 |
| 20260504225353 | 26 | 332 | 9.7 | 12.9 | 0.00 | 0.00 | 0.00 | 26 | 1005.2 |
| 20260504224850 | 25 | 154 | 3.2 | 4.8 | 0.00 | 0.00 | 0.00 | 26 | 1005.6 |
| 20260504224347 | 25 | 250 | 6.4 | 11.3 | 0.00 | 0.00 | 0.00 | 26 | 1005.3 |
| 20260504223844 | 26 | 287 | 9.7 | 12.9 | 0.00 | 0.00 | 0.00 | 25 | 1005.4 |
| 20260504223339 | 26 | 63 | 6.4 | 9.7 | 0.00 | 0.00 | 0.00 | 25 | 1005.4 |
| 20260504222836 | 25 | 190 | 8.0 | 11.3 | 0.00 | 0.00 | 0.00 | 27 | 1005.3 |
| 20260504222333 | 25 | 302 | 11.3 | 14.5 | 0.00 | 0.00 | 0.00 | 25 | 1005.3 |
| 20260504221831 | 25 | 324 | 8.0 | 9.7 | 0.00 | 0.00 | 0.00 | 25 | 1005.4 |
| 20260504221327 | 25 | 289 | 6.4 | 9.7 | 0.00 | 0.00 | 0.00 | 26 | 1005.5 |
| 20260504220825 | 25 | 288 | 8.0 | 11.3 | 0.00 | 0.00 | 0.00 | 24 | 1005.6 |
| 20260504220321 | 25 | 301 | 6.4 | 6.4 | 0.00 | 0.00 | 0.00 | 26 | 1005.6 |
| 20260504215819 | 25 | 280 | 14.5 | 17.7 | 0.00 | 0.00 | 0.00 | 26 | 1005.7 |
| 20260504215315 | 25 | 276 | 8.0 | 12.9 | 0.00 | 0.00 | 0.00 | 26 | 1005.8 |
| 20260504214811 | 25 | 340 | 6.4 | 6.4 | 0.00 | 0.00 | 0.00 | 25 | 1005.7 |
| 20260504214308 | 25 | 310 | 6.4 | 6.4 | 0.00 | 0.00 | 0.00 | 26 | 1005.8 |
| 20260504213805 | 25 | 286 | 16.1 | 22.5 | 0.00 | 0.00 | 0.00 | 23 | 1005.7 |
| 20260504213301 | 25 | 286 | 6.4 | 11.3 | 0.00 | 0.00 | 0.00 | 24 | 1005.7 |
| 20260504212758 | 25 | 319 | 6.4 | 6.4 | 0.00 | 0.00 | 0.00 | 27 | 1005.9 |
| 20260504212254 | 25 | 282 | 6.4 | 11.3 | 0.00 | 0.00 | 0.00 | 25 | 1005.8 |
| 20260504211752 | 25 | 285 | 6.4 | 9.7 | 0.00 | 0.00 | 0.00 | 26 | 1005.9 |